Lid_Strength_Index
1 1 1 2 2 2 3 2 2 3 1 -0 -0 -0 -0 -0 -0 2 5 5 9 11 11 11 12 13 12 11 12 12 11 12 13 13 14 14 20 16 18 15 15 16 19 20 22 24 18 15 14 13 12 14 13 12
1 1 1 2 2 2 2 2 1 3 1 -0 -0 -0 0 0 -0 1 5 5 6 10 11 10 11 11 12 11 11 12 12 12 10 12 13 15 17 18 19 19 14 16 14 16 14 15 13 14 13 12 12 12 12 12
1 1 1 1 2 2 2 2 1 2 1 1 0 1 1 1 0 1 4 5 9 11 12 12 12 10 9 10 9 12 13 12 13 12 14 16 17 17 17 19 16 15 15 15 14 15 14 13 13 13 12 12 12 12
0 1 1 2 2 2 2 1 1 1 1 1 1 1 1 1 0 2 4 5 8 12 14 13 10 11 10 9 9 8 10 10 11 12 13 15 18 15 18 15 15 14 13 16 17 15 14 14 12 12 13 12 12 13
0 1 1 1 2 2 2 1 1 1 1 1 1 1 1 0 0 3 4 4 6 10 15 14 11 11 11 9 9 8 9 11 12 12 13 15 16 16 18 16 18 14 14 14 15 13 12 12 12 12 13 13 13 12
0 1 2 1 1 2 2 1 1 1 1 0 1 1 1 0 1 6 9 4 5 9 13 16 12 13 12 11 11 11 10 11 12 12 14 14 14 15 18 20 15 13 13 12 12 12 13 13 12 12 12 13 13 13
-0 0 1 1 1 2 2 2 1 1 0 0 0 1 1 1 5 8 10 7 4 8 14 17 15 12 12 12 13 13 12 13 12 14 14 14 14 16 22 23 15 14 13 13 13 12 12 11 12 12 12 14 15 17
0 0 0 0 1 1 1 1 1 1 1 0 0 1 1 1 2 6 5 2 4 10 13 18 18 15 12 15 15 14 14 14 15 15 15 15 15 18 21 16 15 14 14 14 15 14 13 14 14 16 16 16 15 16
0 0 1 -0 -0 1 1 1 2 2 2 2 0 1 3 5 9 7 2 3 4 8 16 20 18 19 13 13 14 14 14 17 15 17 16 15 20 20 17 15 15 14 14 14 16 17 16 16 16 18 18 18 18 18
1 0 1 1 1 1 2 2 2 2 2 1 4 8 11 12 4 2 6 8 8 9 14 20 20 17 14 16 17 16 17 18 20 18 15 19 21 15 15 15 13 13 14 15 15 16 17 18 18 19 19 20 19 19
1 1 1 1 1 1 2 2 2 2 3 7 9 11 9 4 6 8 9 11 11 13 15 18 18 13 13 16 18 15 20 21 22 20 18 20 21 15 15 16 17 17 16 17 17 17 18 17 18 18 20 21 21 22
2 1 1 1 1 1 1 2 2 6 8 8 8 7 7 9 10 12 13 13 13 16 20 17 17 15 15 13 15 17 21 23 24 20 22 26 20 20 20 20 22 21 20 22 21 21 21 22 22 21 23 26 27 27
2 2 2 1 1 1 1 2 2 3 5 10 10 10 15 12 14 15 17 16 18 19 17 16 15 14 15 14 18 17 20 21 23 24 24 22 22 24 25 24 24 25 24 24 25 26 25 26 27 28 29 32 32 31
3 3 2 2 1 1 2 2 3 6 11 14 16 15 18 17 19 19 22 23 19 20 17 14 16 15 19 17 18 19 20 20 24 26 24 22 28 29 27 27 24 26 27 29 30 29 29 29 30 32 34 34 33 33
3 3 2 2 1 1 2 3 5 13 16 20 18 18 21 21 22 24 23 23 19 19 18 19 16 14 16 16 19 22 22 24 22 22 22 27 30 30 30 30 29 29 29 30 32 32 31 31 32 34 34 36 35 35
2 3 5 2 2 2 3 10 18 17 20 24 26 21 21 18 19 23 23 21 19 19 17 14 15 15 15 15 18 21 21 23 21 29 32 30 32 32 33 33 33 32 32 32 33 34 34 36 36 37 37 37 37 37
3 9 3 3 4 5 6 18 20 26 24 27 28 25 28 24 23 24 24 22 20 18 16 16 18 16 14 16 22 26 23 28 35 35 35 36 35 34 35 34 34 34 33 33 34 33 35 35 36 34 33 34 36 37
14 9 3 3 10 12 21 23 25 26 27 30 26 24 25 25 25 23 23 22 21 17 15 15 17 21 23 24 25 30 32 34 34 36 36 38 39 38 37 35 34 34 34 34 36 37 37 34 33 34 37 36 35 35
10 6 4 4 10 20 21 22 24 28 31 32 26 26 25 24 24 23 24 24 23 20 19 18 20 22 26 31 34 34 34 35 36 35 35 38 40 39 37 37 36 35 34 35 35 35 36 36 35 35 35 35 33 34
4 4 5 7 10 19 22 24 24 25 28 26 27 25 25 23 24 24 25 27 26 23 27 27 31 32 30 31 32 34 35 34 38 36 35 35 37 37 37 39 37 38 37 37 37 33 34 33 34 35 36 35 35 33
9 9 8 14 19 22 25 27 24 24 22 23 22 23 25 24 25 27 29 29 27 33 31 34 34 34 34 35 35 39 37 37 35 35 36 35 36 37 38 37 39 40 38 38 37 36 36 35 34 36 38 37 37 36
13 9 16 15 19 23 22 21 22 19 18 20 20 23 24 24 27 28 30 28 33 36 37 37 38 40 40 39 39 40 38 40 41 39 34 34 36 35 35 37 37 36 37 37 38 36 36 34 35 36 36 34 33 34
15 15 20 22 22 24 26 24 26 25 22 24 25 26 27 30 32 31 33 39 37 38 41 42 41 42 41 39 40 39 40 38 38 35 32 32 32 32 33 35 36 35 31 32 37 36 34 31 31 32 33 33 34 34
20 29 29 29 28 31 29 28 29 29 31 31 32 31 32 37 34 31 32 38 35 41 40 39 43 38 38 39 38 38 37 38 37 35 30 29 28 27 29 28 29 30 30 34 36 36 36 36 33 35 35 36 36 36
24 33 32 34 33 31 31 30 31 30 34 37 34 32 34 41 32 33 33 33 37 38 39 43 43 42 38 40 39 39 40 38 37 37 33 31 29 28 27 27 27 28 34 33 35 37 38 39 38 38 37 38 37 35
35 40 36 41 37 35 39 34 36 37 39 35 37 39 43 36 30 30 33 34 37 38 37 37 38 39 40 38 38 39 37 42 41 39 35 35 34 32 31 31 30 29 32 33 37 38 37 36 38 36 36 35 35 38
32 36 40 42 42 42 40 42 43 39 38 37 40 37 36 31 32 31 34 37 35 36 39 40 39 38 35 35 37 37 39 43 36 35 38 37 34 33 31 31 31 30 34 35 35 36 36 35 36 36 35 35 38 36
42 45 39 39 42 48 41 44 42 39 41 44 44 34 32 32 30 31 31 36 41 44 43 40 38 37 36 34 34 37 37 43 43 38 36 34 34 33 33 31 31 27 35 36 35 35 37 37 37 37 37 35 33 35
44 50 48 40 44 42 42 39 39 43 44 46 39 38 35 35 37 39 36 42 49 44 39 38 37 48 41 40 39 38 40 43 38 34 34 32 34 30 38 37 38 38 37 37 32 28 32 34 34 34 34 32 31 31
44 53 43 45 39 36 40 46 47 53 54 50 53 45 43 41 40 46 46 46 42 37 38 41 43 45 38 42 36 34 40 39 36 32 33 31 30 35 41 40 37 35 35 37 34 32 29 30 32 36 33 33 33 31
52 52 45 47 43 45 50 57 60 59 57 57 60 52 44 44 42 40 41 42 44 48 44 36 39 44 43 43 44 42 30 37 38 36 34 32 32 32 31 31 31 33 35 36 35 35 34 34 34 35 35 34 33 32
50 49 44 39 40 49 56 55 55 52 53 52 50 59 49 46 39 31 37 43 44 41 33 36 39 30 33 32 34 33 30 28 32 32 34 32 32 31 30 30 31 33 34 34 34 34 34 36 34 33 33 33 33 33
52 56 55 49 42 41 47 47 46 43 48 48 46 50 50 43 33 29 34 35 29 29 27 29 29 29 31 32 31 30 30 30 30 26 25 25 28 28 29 30 31 32 33 33 32 32 34 34 34 33 33 33 32 31